Caldwell, NJ

8:27 AM EST on November 23, 2017 (GMT -0500)
Essex County

Weather History for KCDW - December, 2012

Change the Weather History Date:

Monday, December 10, 2012

  Actual Average Record
Temperature  
Mean Temperature 48 °F -  
Max Temperature 55 °F 44 °F 65 °F (1966)
Min Temperature 42 °F 26 °F 4 °F (1982)
Degree Days  
Heating Degree Days 16    
Moisture  
Dew Point 48 °F    
Average Humidity 95    
Maximum Humidity 100    
Minimum Humidity 83    
Precipitation  
Precipitation 0.02 in - - ()
Sea Level Pressure  
Sea Level Pressure 29.75 in    
Wind  
Wind Speed 2 mph (East)    
Max Wind Speed 12 mph    
Max Gust Speed 20 mph    
Visibility 3 miles    
Events Fog , Rain    
Averages and records for this station are not official NWS values.
T = Trace of Precipitation, MM = Missing Value Source: NWS Daily Summary

Daily Weather History Graph

Daily Weather History Graph

Search for Another Location

Airport or City:

Trip Planner

Search our weather history database for the weather conditions in past years. The results will help you decide how hot, cold, wet, or windy it might be!

Date:

Astronomy

Dec. 10, 2012 Rise Set
Actual Time 7:11 AM EST 4:29 PM EST
Civil Twilight 6:40 AM EST 5:00 PM EST
Nautical Twilight 6:05 AM EST 5:34 PM EST
Astronomical Twilight 5:32 AM EST 6:07 PM EST
Moon 3:50 AM EST (12/10) 2:17 PM EST (12/10)
Length of Visible Light 10h 19m
Length of Day
9h 18m
Waning Crescent, 10% of the Moon is Illuminated
Dec 10
Waning Crescent
Dec 13
New
Dec 20
First Quarter
Dec 28
Full
Jan 4
Last Quarter

Hourly Weather History & Observations

Time (EST) Temp. Windchill Dew Point Humidity Pressure Visibility Wind Dir Wind Speed Gust Speed Precip Events Conditions
12:53 AM 43.0 °F 40.3 °F 42.1 °F 97% 30.01 in 9.0 mi ENE 4.6 mph - 0.00 in   Overcast
1:42 AM 44.6 °F 43.1 °F 42.8 °F 93% 29.96 in 5.0 mi Variable 3.5 mph - N/A   Overcast
1:53 AM 44.1 °F 41.5 °F 42.1 °F 93% 29.98 in 4.0 mi ENE 4.6 mph - N/A   Overcast
2:09 AM 44.6 °F - 42.8 °F 93% 29.95 in 2.0 mi Calm Calm - N/A   Overcast
2:28 AM 44.6 °F 40.7 °F 42.8 °F 93% 29.94 in 3.0 mi ENE 6.9 mph - N/A   Overcast
2:46 AM 44.6 °F 43.1 °F 42.8 °F 93% 29.93 in 2.5 mi Variable 3.5 mph - N/A   Overcast
2:53 AM 44.1 °F 42.5 °F 42.1 °F 93% 29.94 in 2.5 mi ENE 3.5 mph - N/A   Overcast
3:38 AM 44.6 °F - 42.8 °F 93% 29.90 in 1.8 mi Calm Calm - N/A   Overcast
3:46 AM 44.6 °F - 42.8 °F 93% 29.89 in 1.5 mi Calm Calm - N/A   Overcast
3:53 AM 44.1 °F - 42.1 °F 93% 29.91 in 1.2 mi Calm Calm - N/A   Overcast
4:53 AM 43.0 °F - 42.1 °F 97% 29.88 in 1.0 mi Calm Calm - 0.01 in   Overcast
5:53 AM 43.0 °F - 42.1 °F 97% 29.85 in 0.8 mi Calm Calm - N/A   Overcast
6:18 AM 42.8 °F - 42.8 °F 100% 29.84 in 0.8 mi Calm Calm - N/A   Mist
7:16 AM 42.8 °F - 42.8 °F 100% 29.82 in 0.5 mi Calm Calm - N/A Fog Fog
7:25 AM 42.8 °F - 42.8 °F 100% 29.82 in 0.2 mi Calm Calm - N/A Fog Fog
7:53 AM 44.1 °F - 42.1 °F 93% 29.83 in 0.2 mi Calm Calm - N/A Fog Fog
8:53 AM 44.1 °F - 43.0 °F 96% 29.81 in 0.2 mi Calm Calm - N/A Fog Fog
9:35 AM 44.6 °F - 44.6 °F 100% 29.79 in 0.5 mi Calm Calm - N/A Fog Fog
9:53 AM 45.0 °F - 44.1 °F 97% 29.81 in 0.5 mi Calm Calm - N/A Fog Fog
10:53 AM 46.0 °F - 45.0 °F 96% 29.76 in 0.8 mi Calm Calm - 0.01 in   Overcast
11:51 AM 48.2 °F - 48.2 °F 100% 29.70 in 1.0 mi Calm Calm - N/A   Overcast
11:53 AM 48.9 °F - 46.9 °F 93% 29.72 in 1.0 mi Calm Calm - N/A   Overcast
12:53 PM 50.0 °F - 48.9 °F 96% 29.69 in 1.2 mi Calm Calm - N/A   Overcast
1:53 PM 52.0 °F - 51.1 °F 97% 29.67 in 2.5 mi Calm Calm - N/A   Overcast
2:24 PM 53.6 °F - 51.8 °F 94% 29.63 in 3.0 mi Calm Calm - N/A   Overcast
2:53 PM 54.0 °F - 52.0 °F 93% 29.64 in 3.0 mi Calm Calm - N/A   Overcast
3:36 PM 53.6 °F - 53.6 °F 100% 29.61 in 3.0 mi Calm Calm - N/A   Overcast
3:53 PM 55.0 °F - 53.1 °F 93% 29.62 in 3.0 mi Calm Calm - N/A   Overcast
4:01 PM 55.4 °F - 53.6 °F 94% 29.61 in 4.0 mi SSW 3.5 mph - N/A   Overcast
4:13 PM 55.4 °F - 53.6 °F 94% 29.60 in 4.0 mi SW 3.5 mph - N/A   Overcast
4:53 PM 55.0 °F - 53.1 °F 93% 29.59 in 5.0 mi Calm Calm - N/A   Overcast
5:15 PM 53.6 °F - 53.6 °F 100% 29.58 in 4.0 mi Calm Calm - N/A   Overcast
5:28 PM 55.4 °F - 53.6 °F 94% 29.59 in 5.0 mi Calm Calm - N/A   Overcast
5:53 PM 55.0 °F - 53.1 °F 93% 29.60 in 5.0 mi Calm Calm - N/A   Overcast
6:53 PM 55.0 °F - 53.1 °F 93% 29.58 in 5.0 mi Calm Calm - N/A   Overcast
7:53 PM 55.0 °F - 53.1 °F 93% 29.59 in 4.0 mi Calm Calm - N/A   Overcast
8:53 PM 55.0 °F - 53.1 °F 93% 29.57 in 4.0 mi South 3.5 mph - N/A   Overcast
9:53 PM 55.0 °F - 53.1 °F 93% 29.58 in 4.0 mi Variable 3.5 mph - N/A   Overcast
10:53 PM 55.9 °F - 53.1 °F 90% 29.59 in 5.0 mi SW 3.5 mph - N/A   Overcast
11:44 PM 55.4 °F - 53.6 °F 94% 29.59 in 4.0 mi NW 8.1 mph - N/A   Overcast
11:53 PM 53.1 °F - 48.0 °F 83% 29.62 in 7.0 mi NNW 11.5 mph 19.6 mph 0.00 in Rain Light Rain